Time,TemperatureF,DewpointF,PressureIn,WindDirection,WindDirectionDegrees,WindSpeedMPH,WindSpeedGustMPH,Humidity,HourlyPrecipIn,Conditions,Clouds,dailyrainin,SoftwareType,DateUTC
2013-05-11 00:00:00,58.6,52.8,29.85,NNE,15,1.0,3.0,81,0.00,CLR,BKN,0.00,WeatherDisplay:10.37,2013-05-10 22:00:00,
2013-05-11 00:04:00,58.6,52.8,29.85,North,0,3.5,3.5,81,0.00,CLR,BKN,0.00,WeatherDisplay:10.37,2013-05-10 22:04:00,
2013-05-11 00:05:00,58.6,52.8,29.85,North,2,2.0,3.0,81,0.00,CLR,BKN,0.00,WeatherDisplay:10.37,2013-05-10 22:05:00,
2013-05-11 00:10:00,58.6,53.2,29.85,NNW,346,0.0,3.0,82,0.00,CLR,BKN,0.00,WeatherDisplay:10.37,2013-05-10 22:10:00,
2013-05-11 00:15:00,58.6,53.2,29.85,NW,304,1.0,2.0,82,0.00,CLR,BKN,0.00,WeatherDisplay:10.37,2013-05-10 22:15:00,
2013-05-11 00:20:00,58.8,53.3,29.85,WNW,285,0.0,2.0,82,0.00,CLR,BKN,0.00,WeatherDisplay:10.37,2013-05-10 22:20:00,
2013-05-11 00:25:00,58.8,53.7,29.85,West,270,2.3,2.3,83,0.00,CLR,BKN,0.00,WeatherDisplay:10.37,2013-05-10 22:25:00,
2013-05-11 00:30:00,59.0,53.8,29.85,West,270,1.2,0.0,83,0.00,CLR,BKN,0.00,WeatherDisplay:10.37,2013-05-10 22:30:00,
2013-05-11 00:35:00,58.8,54.0,29.85,South,180,1.6,1.6,84,0.00,CLR,BKN,0.00,WeatherDisplay:10.37,2013-05-10 22:35:00,
2013-05-11 00:40:00,58.8,54.0,29.85,South,180,1.6,1.6,84,0.00,CLR,BKN,0.00,WeatherDisplay:10.37,2013-05-10 22:40:00,
2013-05-11 00:45:00,58.8,54.0,29.85,SE,135,3.5,3.5,84,0.00,CLR,BKN,0.00,WeatherDisplay:10.37,2013-05-10 22:45:00,
2013-05-11 00:50:00,58.6,53.8,29.85,SE,135,2.3,2.3,84,0.00,CLR,BKN,0.00,WeatherDisplay:10.37,2013-05-10 22:50:00,
2013-05-11 00:55:00,58.6,53.8,29.85,East,90,1.2,0.0,84,0.00,CLR,BKN,0.00,WeatherDisplay:10.37,2013-05-10 22:55:00,
2013-05-11 01:00:00,58.5,54.0,29.85,South,180,2.3,2.3,85,0.00,CLR,BKN,0.00,WeatherDisplay:10.37,2013-05-10 23:00:00,
2013-05-11 01:05:00,58.3,53.8,29.85,SE,135,1.6,1.6,85,0.00,CLR,BKN,0.00,WeatherDisplay:10.37,2013-05-10 23:05:00,
2013-05-11 01:10:00,58.1,53.6,29.85,NE,45,1.2,0.0,85,0.00,CLR,BKN,0.00,WeatherDisplay:10.37,2013-05-10 23:10:00,
2013-05-11 01:15:00,58.1,53.6,29.85,SE,135,1.6,0.0,85,0.00,CLR,BKN,0.00,WeatherDisplay:10.37,2013-05-10 23:15:00,
2013-05-11 01:20:00,57.9,53.4,29.85,NE,45,2.3,2.3,85,0.00,CLR,BKN,0.00,WeatherDisplay:10.37,2013-05-10 23:20:00,
2013-05-11 01:25:00,57.7,53.3,29.85,East,90,4.6,4.6,85,0.00,CLR,BKN,0.00,WeatherDisplay:10.37,2013-05-10 23:25:00,
2013-05-11 01:30:00,57.4,52.9,29.85,SE,135,1.6,1.6,85,0.00,CLR,BKN,0.00,WeatherDisplay:10.37,2013-05-10 23:30:00,
2013-05-11 01:35:00,57.2,52.7,29.85,East,90,3.5,3.5,85,0.00,CLR,BKN,0.00,WeatherDisplay:10.37,2013-05-10 23:35:00,
2013-05-11 01:40:00,57.0,52.9,29.85,NE,45,1.6,1.6,86,0.00,CLR,BKN,0.00,WeatherDisplay:10.37,2013-05-10 23:40:00,
2013-05-11 01:45:00,57.0,52.9,29.84,SE,135,3.5,3.5,86,0.00,CLR,BKN,0.00,WeatherDisplay:10.37,2013-05-10 23:45:00,
2013-05-11 01:50:00,56.8,52.7,29.85,SE,135,3.5,3.5,86,0.00,CLR,BKN,0.00,WeatherDisplay:10.37,2013-05-10 23:50:00,
2013-05-11 01:55:00,56.8,52.7,29.85,NE,45,3.5,3.5,86,0.00,CLR,BKN,0.00,WeatherDisplay:10.37,2013-05-10 23:55:00,
2013-05-11 02:00:00,56.8,53.0,29.84,NE,45,3.5,3.5,87,0.00,CLR,BKN,0.00,WeatherDisplay:10.37,2013-05-11 00:00:00,
2013-05-11 02:05:00,56.8,53.0,29.84,ENE,68,3.5,3.5,87,0.00,CLR,BKN,0.00,WeatherDisplay:10.37,2013-05-11 00:05:00,
2013-05-11 02:10:00,57.2,53.4,29.84,North,0,3.5,0.0,87,0.00,CLR,BKN,0.00,WeatherDisplay:10.37,2013-05-11 00:10:00,
2013-05-11 02:15:00,57.2,53.4,29.84,North,0,1.6,1.6,87,0.00,CLR,BKN,0.00,WeatherDisplay:10.37,2013-05-11 00:15:00,
2013-05-11 02:20:00,57.2,53.7,29.84,North,0,1.2,0.0,88,0.00,CLR,BKN,0.00,WeatherDisplay:10.37,2013-05-11 00:20:00,
2013-05-11 02:25:00,57.4,53.9,29.84,SE,135,0.0,0.0,88,0.00,CLR,BKN,0.00,WeatherDisplay:10.37,2013-05-11 00:25:00,
2013-05-11 02:30:00,57.4,53.9,29.84,SE,135,1.2,0.0,88,0.00,CLR,BKN,0.00,WeatherDisplay:10.37,2013-05-11 00:30:00,
2013-05-11 02:35:00,57.4,53.9,29.84,SE,135,1.2,0.0,88,0.00,CLR,BKN,0.00,WeatherDisplay:10.37,2013-05-11 00:35:00,
2013-05-11 02:40:00,57.4,53.9,29.84,South,180,2.3,2.3,88,0.00,CLR,BKN,0.00,WeatherDisplay:10.37,2013-05-11 00:40:00,
2013-05-11 02:45:00,57.6,54.0,29.84,NW,315,1.6,1.6,88,0.00,CLR,BKN,0.00,WeatherDisplay:10.37,2013-05-11 00:45:00,
2013-05-11 02:50:00,57.6,54.0,29.84,SW,225,1.6,1.6,88,0.00,CLR,BKN,0.00,WeatherDisplay:10.37,2013-05-11 00:50:00,
2013-05-11 02:55:00,57.7,54.5,29.84,SW,225,0.0,0.0,89,0.00,CLR,BKN,0.00,WeatherDisplay:10.37,2013-05-11 00:55:00,
2013-05-11 03:00:00,57.7,54.5,29.84,North,0,1.2,0.0,89,0.00,CLR,BKN,0.00,WeatherDisplay:10.37,2013-05-11 01:00:00,
2013-05-11 03:05:00,57.7,54.5,29.84,North,0,0.0,0.0,89,0.00,CLR,BKN,0.00,WeatherDisplay:10.37,2013-05-11 01:05:00,
2013-05-11 03:10:00,57.7,54.5,29.83,NE,45,1.6,1.6,89,0.00,CLR,BKN,0.00,WeatherDisplay:10.37,2013-05-11 01:10:00,
2013-05-11 03:15:00,57.7,54.5,29.83,East,90,1.6,1.6,89,0.00,CLR,BKN,0.00,WeatherDisplay:10.37,2013-05-11 01:15:00,
2013-05-11 03:20:00,57.7,54.8,29.83,East,90,1.2,0.0,90,0.00,CLR,BKN,0.00,WeatherDisplay:10.37,2013-05-11 01:20:00,
2013-05-11 03:25:00,57.7,54.8,29.83,East,90,0.0,0.0,90,0.00,CLR,BKN,0.00,WeatherDisplay:10.37,2013-05-11 01:25:00,
2013-05-11 03:30:00,57.9,55.0,29.83,East,90,1.6,0.0,90,0.00,CLR,BKN,0.00,WeatherDisplay:10.37,2013-05-11 01:30:00,
2013-05-11 03:35:00,57.9,55.0,29.83,NE,45,2.3,2.3,90,0.00,CLR,BKN,0.00,WeatherDisplay:10.37,2013-05-11 01:35:00,
2013-05-11 03:40:00,57.9,55.0,29.83,NW,315,1.6,1.6,90,0.00,CLR,BKN,0.00,WeatherDisplay:10.37,2013-05-11 01:40:00,
2013-05-11 03:45:00,58.3,55.7,29.83,SW,225,2.3,0.0,91,0.00,CLR,BKN,0.00,WeatherDisplay:10.37,2013-05-11 01:45:00,
2013-05-11 03:50:00,58.3,55.7,29.83,East,90,2.3,2.3,91,0.00,CLR,BKN,0.00,WeatherDisplay:10.37,2013-05-11 01:50:00,
2013-05-11 03:55:00,58.5,55.8,29.83,SE,135,1.2,0.0,91,0.00,CLR,BKN,0.00,WeatherDisplay:10.37,2013-05-11 01:55:00,
2013-05-11 04:00:00,58.3,55.7,29.82,NE,45,1.2,0.0,91,0.00,CLR,BKN,0.00,WeatherDisplay:10.37,2013-05-11 02:00:00,
2013-05-11 04:05:00,58.3,55.7,29.82,NE,45,0.0,0.0,91,0.00,CLR,BKN,0.00,WeatherDisplay:10.37,2013-05-11 02:05:00,
2013-05-11 04:10:00,58.5,55.8,29.82,North,0,0.0,0.0,91,0.00,CLR,BKN,0.00,WeatherDisplay:10.37,2013-05-11 02:10:00,
2013-05-11 04:15:00,58.5,55.8,29.82,South,180,1.2,0.0,91,0.00,CLR,BKN,0.00,WeatherDisplay:10.37,2013-05-11 02:15:00,
2013-05-11 04:20:00,58.5,55.8,29.82,East,90,2.3,2.3,91,0.00,CLR,BKN,0.00,WeatherDisplay:10.37,2013-05-11 02:20:00,
2013-05-11 04:25:00,58.5,55.8,29.82,NE,45,1.6,1.6,91,0.00,CLR,BKN,0.00,WeatherDisplay:10.37,2013-05-11 02:25:00,
2013-05-11 04:30:00,58.3,55.7,29.81,North,0,2.3,2.3,91,0.00,CLR,BKN,0.00,WeatherDisplay:10.37,2013-05-11 02:30:00,
2013-05-11 04:35:00,58.3,55.7,29.82,NE,45,1.6,1.6,91,0.00,CLR,BKN,0.00,WeatherDisplay:10.37,2013-05-11 02:35:00,
2013-05-11 04:40:00,58.1,55.8,29.81,NE,45,1.2,0.0,92,0.00,CLR,BKN,0.00,WeatherDisplay:10.37,2013-05-11 02:40:00,
2013-05-11 04:45:00,58.3,56.0,29.82,SE,135,0.0,0.0,92,0.00,CLR,BKN,0.00,WeatherDisplay:10.37,2013-05-11 02:45:00,
2013-05-11 04:50:00,58.1,55.8,29.82,NW,315,1.2,0.0,92,0.00,CLR,BKN,0.00,WeatherDisplay:10.37,2013-05-11 02:50:00,
2013-05-11 04:55:00,58.3,56.0,29.81,NW,315,1.6,1.6,92,0.00,CLR,BKN,0.00,WeatherDisplay:10.37,2013-05-11 02:55:00,
2013-05-11 05:00:00,58.3,56.0,29.81,North,0,1.2,0.0,92,0.00,CLR,BKN,0.00,WeatherDisplay:10.37,2013-05-11 03:00:00,
2013-05-11 05:05:00,58.3,56.0,29.81,NW,315,1.6,0.0,92,0.00,CLR,BKN,0.00,WeatherDisplay:10.37,2013-05-11 03:05:00,
2013-05-11 05:10:00,58.3,56.0,29.81,East,90,1.6,1.6,92,0.00,CLR,BKN,0.00,WeatherDisplay:10.37,2013-05-11 03:10:00,
2013-05-11 05:15:00,58.5,56.1,29.81,NW,315,1.6,1.6,92,0.00,CLR,BKN,0.00,WeatherDisplay:10.37,2013-05-11 03:15:00,
2013-05-11 05:20:00,58.5,56.1,29.81,NW,315,2.3,0.0,92,0.00,CLR,BKN,0.00,WeatherDisplay:10.37,2013-05-11 03:20:00,
2013-05-11 05:25:00,58.5,56.1,29.81,North,0,3.5,3.5,92,0.00,CLR,BKN,0.00,WeatherDisplay:10.37,2013-05-11 03:25:00,
2013-05-11 05:30:00,58.5,56.1,29.81,NE,45,1.2,0.0,92,0.00,CLR,BKN,0.00,WeatherDisplay:10.37,2013-05-11 03:30:00,
2013-05-11 05:35:00,58.5,56.1,29.81,North,0,3.8,3.8,92,0.00,CLR,BKN,0.00,WeatherDisplay:10.37,2013-05-11 03:35:00,
2013-05-11 05:40:00,58.6,56.3,29.81,North,0,7.6,7.6,92,0.00,CLR,BKN,0.00,WeatherDisplay:10.37,2013-05-11 03:40:00,
2013-05-11 05:45:00,58.8,56.5,29.81,North,0,5.8,5.8,92,0.00,CLR,BKN,0.00,WeatherDisplay:10.37,2013-05-11 03:45:00,
2013-05-11 05:50:00,59.0,56.4,29.81,NE,45,5.8,5.8,91,0.00,CLR,BKN,0.00,WeatherDisplay:10.37,2013-05-11 03:50:00,
2013-05-11 05:55:00,59.2,56.6,29.82,NE,45,3.5,3.5,91,0.00,CLR,BKN,0.00,WeatherDisplay:10.37,2013-05-11 03:55:00,
2013-05-11 06:00:00,59.2,56.6,29.81,NW,315,3.5,0.0,91,0.00,CLR,BKN,0.00,WeatherDisplay:10.37,2013-05-11 04:00:00,
2013-05-11 06:01:00,59.2,56.6,29.81,NW,315,3.5,0.0,91,0.00,CLR,BKN,0.00,WeatherDisplay:10.37,2013-05-11 04:01:00,
2013-05-11 06:02:00,59.2,56.6,29.81,North,0,1.2,0.0,91,0.00,CLR,BKN,0.00,WeatherDisplay:10.37,2013-05-11 04:02:00,
2013-05-11 06:04:00,59.2,56.6,29.81,North,0,1.2,0.0,91,0.00,CLR,BKN,0.00,WeatherDisplay:10.37,2013-05-11 04:04:00,
2013-05-11 06:06:00,59.4,56.7,29.82,SW,225,1.6,1.6,91,0.00,CLR,BKN,0.00,WeatherDisplay:10.37,2013-05-11 04:06:00,
2013-05-11 06:11:00,59.4,56.7,29.81,West,270,1.6,1.6,91,0.00,CLR,BKN,0.00,WeatherDisplay:10.37,2013-05-11 04:11:00,
2013-05-11 06:16:00,59.5,56.9,29.82,NE,45,1.2,0.0,91,0.00,CLR,BKN,0.00,WeatherDisplay:10.37,2013-05-11 04:16:00,
2013-05-11 06:21:00,59.7,57.1,29.82,NE,45,1.2,0.0,91,0.00,CLR,BKN,0.00,WeatherDisplay:10.37,2013-05-11 04:21:00,
2013-05-11 06:26:00,59.9,57.3,29.81,SE,135,1.2,1.2,91,0.00,CLR,BKN,0.00,WeatherDisplay:10.37,2013-05-11 04:26:00,
2013-05-11 06:31:00,60.1,57.4,29.81,NE,45,3.5,3.5,91,0.00,CLR,BKN,0.00,WeatherDisplay:10.37,2013-05-11 04:31:00,
2013-05-11 06:36:00,60.3,57.3,29.81,North,0,2.3,2.3,90,0.00,CLR,BKN,0.00,WeatherDisplay:10.37,2013-05-11 04:36:00,
2013-05-11 06:41:00,60.3,57.3,29.81,North,0,3.5,3.5,90,0.00,CLR,BKN,0.00,WeatherDisplay:10.37,2013-05-11 04:41:00,
2013-05-11 06:46:00,60.6,57.7,29.81,NNE,22,3.5,3.5,90,0.00,CLR,BKN,0.00,WeatherDisplay:10.37,2013-05-11 04:46:00,
2013-05-11 06:51:00,60.6,57.7,29.82,North,0,4.5,4.5,90,0.00,CLR,BKN,0.00,WeatherDisplay:10.37,2013-05-11 04:51:00,
2013-05-11 06:56:00,60.8,57.5,29.81,North,0,4.6,4.6,89,0.00,CLR,BKN,0.00,WeatherDisplay:10.37,2013-05-11 04:56:00,
2013-05-11 07:01:00,61.2,57.9,29.81,NE,45,5.4,5.4,89,0.00,CLR,BKN,0.00,WeatherDisplay:10.37,2013-05-11 05:01:00,
2013-05-11 07:06:00,61.5,57.9,29.81,NE,45,6.0,6.0,88,0.00,CLR,BKN,0.00,WeatherDisplay:10.37,2013-05-11 05:06:00,
2013-05-11 07:11:00,61.7,57.8,29.81,NNE,22,8.1,8.1,87,0.00,CLR,BKN,0.00,WeatherDisplay:10.37,2013-05-11 05:11:00,
2013-05-11 07:16:00,61.9,57.6,29.81,North,0,8.1,8.1,86,0.00,CLR,BKN,0.00,WeatherDisplay:10.37,2013-05-11 05:16:00,
2013-05-11 07:21:00,61.9,57.6,29.81,SW,225,7.6,7.6,86,0.00,CLR,BKN,0.00,WeatherDisplay:10.37,2013-05-11 05:21:00,
2013-05-11 07:26:00,61.9,57.3,29.81,North,0,9.2,9.2,85,0.00,CLR,BKN,0.00,WeatherDisplay:10.37,2013-05-11 05:26:00,
2013-05-11 07:31:00,61.9,57.3,29.81,North,0,6.9,6.9,85,0.00,CLR,BKN,0.00,WeatherDisplay:10.37,2013-05-11 05:31:00,
2013-05-11 07:36:00,61.9,57.3,29.81,NE,45,8.1,8.1,85,0.00,CLR,BKN,0.00,WeatherDisplay:10.37,2013-05-11 05:36:00,
2013-05-11 07:41:00,61.9,57.3,29.82,North,0,6.9,6.9,85,0.00,CLR,BKN,0.00,WeatherDisplay:10.37,2013-05-11 05:41:00,
2013-05-11 07:46:00,62.1,57.5,29.81,NNE,22,8.1,8.1,85,0.00,CLR,BKN,0.00,WeatherDisplay:10.37,2013-05-11 05:46:00,
2013-05-11 07:51:00,62.2,57.7,29.81,North,0,8.1,8.1,85,0.00,CLR,BKN,0.00,WeatherDisplay:10.37,2013-05-11 05:51:00,
2013-05-11 07:56:00,62.4,57.8,29.82,NE,45,8.1,8.1,85,0.00,CLR,BKN,0.00,WeatherDisplay:10.37,2013-05-11 05:56:00,
2013-05-11 08:01:00,63.0,57.7,29.81,North,0,8.1,8.1,83,0.00,CLR,BKN,0.00,WeatherDisplay:10.37,2013-05-11 06:01:00,
2013-05-11 08:06:00,63.5,57.9,29.81,North,0,8.1,8.1,82,0.00,CLR,BKN,0.00,WeatherDisplay:10.37,2013-05-11 06:06:00,
2013-05-11 08:11:00,63.9,58.3,29.81,North,0,5.8,5.8,82,0.00,CLR,BKN,0.00,WeatherDisplay:10.37,2013-05-11 06:11:00,
2013-05-11 08:16:00,63.9,57.9,29.82,NW,315,5.8,5.8,81,0.00,CLR,BKN,0.00,WeatherDisplay:10.37,2013-05-11 06:16:00,
2013-05-11 08:21:00,64.2,58.3,29.81,North,0,8.1,8.1,81,0.00,CLR,BKN,0.00,WeatherDisplay:10.37,2013-05-11 06:21:00,
2013-05-11 08:26:00,64.2,57.9,29.81,North,0,6.9,6.9,80,0.00,CLR,BKN,0.00,WeatherDisplay:10.37,2013-05-11 06:26:00,
2013-05-11 08:31:00,64.4,58.4,29.81,NNW,338,8.3,8.3,81,0.00,CLR,BKN,0.00,WeatherDisplay:10.37,2013-05-11 06:31:00,
2013-05-11 08:36:00,64.9,59.0,29.81,North,0,9.2,9.2,81,0.00,CLR,BKN,0.00,WeatherDisplay:10.37,2013-05-11 06:36:00,
2013-05-11 08:41:00,65.1,58.8,29.81,NE,45,9.2,9.2,80,0.00,CLR,BKN,0.00,WeatherDisplay:10.37,2013-05-11 06:41:00,
2013-05-11 08:46:00,65.5,58.8,29.81,North,0,12.7,12.7,79,0.00,CLR,BKN,0.00,WeatherDisplay:10.37,2013-05-11 06:46:00,
2013-05-11 08:51:00,65.3,58.3,29.81,NNE,22,10.4,10.4,78,0.00,CLR,BKN,0.00,WeatherDisplay:10.37,2013-05-11 06:51:00,
2013-05-11 08:56:00,64.9,57.9,29.81,West,270,8.1,8.1,78,0.00,CLR,BKN,0.00,WeatherDisplay:10.37,2013-05-11 06:56:00,
2013-05-11 09:01:00,65.1,58.4,29.81,NNW,338,5.8,5.8,79,0.00,CLR,BKN,0.00,WeatherDisplay:10.37,2013-05-11 07:01:00,
2013-05-11 09:06:00,64.9,57.9,29.81,North,0,6.9,6.9,78,0.00,CLR,BKN,0.00,WeatherDisplay:10.37,2013-05-11 07:06:00,
2013-05-11 09:11:00,64.9,58.3,29.81,North,0,5.8,5.8,79,0.00,CLR,BKN,0.00,WeatherDisplay:10.37,2013-05-11 07:11:00,
2013-05-11 09:16:00,64.9,58.3,29.81,North,0,5.8,5.8,79,0.00,BKN,,0.00,WeatherDisplay:10.37,2013-05-11 07:16:00,
2013-05-11 09:21:00,64.8,58.1,29.81,WNW,292,4.6,4.6,79,0.00,BKN,,0.00,WeatherDisplay:10.37,2013-05-11 07:21:00,
2013-05-11 09:26:00,64.8,58.1,29.81,West,270,4.6,4.6,79,0.00,BKN,,0.00,WeatherDisplay:10.37,2013-05-11 07:26:00,
2013-05-11 09:31:00,64.6,57.9,29.81,NW,315,3.8,3.8,79,0.00,BKN,,0.00,WeatherDisplay:10.37,2013-05-11 07:31:00,
2013-05-11 09:36:00,64.6,57.9,29.82,NW,315,3.5,3.5,79,0.00,BKN,,0.00,WeatherDisplay:10.37,2013-05-11 07:36:00,
2013-05-11 09:41:00,64.8,58.1,29.82,West,270,2.3,2.3,79,0.00,BKN,,0.00,WeatherDisplay:10.37,2013-05-11 07:41:00,
2013-05-11 09:46:00,64.9,58.3,29.82,West,270,3.5,3.5,79,0.00,BKN,,0.00,WeatherDisplay:10.37,2013-05-11 07:46:00,
2013-05-11 09:51:00,65.3,58.3,29.82,ESE,112,3.5,3.5,78,0.00,BKN,,0.00,WeatherDisplay:10.37,2013-05-11 07:51:00,
2013-05-11 09:56:00,65.7,58.3,29.82,North,0,3.5,0.0,77,0.00,BKN,,0.00,WeatherDisplay:10.37,2013-05-11 07:56:00,
2013-05-11 10:01:00,66.4,58.6,29.82,NW,315,4.6,4.6,76,0.00,BKN,,0.00,WeatherDisplay:10.37,2013-05-11 08:01:00,
2013-05-11 10:06:00,66.9,58.4,29.82,WSW,248,8.3,8.3,74,0.00,BKN,,0.00,WeatherDisplay:10.37,2013-05-11 08:06:00,
2013-05-11 10:11:00,66.7,58.6,29.83,SW,225,8.1,8.1,75,0.00,BKN,,0.00,WeatherDisplay:10.37,2013-05-11 08:11:00,
2013-05-11 10:16:00,66.6,58.4,29.82,WSW,248,4.6,4.6,75,0.00,BKN,,0.00,WeatherDisplay:10.37,2013-05-11 08:16:00,
2013-05-11 10:21:00,66.6,58.4,29.82,West,270,3.5,3.5,75,0.00,BKN,,0.00,WeatherDisplay:10.37,2013-05-11 08:21:00,
2013-05-11 10:26:00,66.6,58.4,29.81,NW,315,3.5,3.5,75,0.00,BKN,,0.00,WeatherDisplay:10.37,2013-05-11 08:26:00,
2013-05-11 10:31:00,66.6,58.8,29.82,North,0,3.8,3.8,76,0.00,BKN,,0.00,WeatherDisplay:10.37,2013-05-11 08:31:00,
2013-05-11 10:36:00,66.6,58.8,29.81,SW,225,4.5,4.5,76,0.00,BKN,,0.00,WeatherDisplay:10.37,2013-05-11 08:36:00,
2013-05-11 10:41:00,66.9,59.5,29.81,NW,315,4.6,4.6,77,0.00,BKN,,0.00,WeatherDisplay:10.37,2013-05-11 08:41:00,
2013-05-11 10:46:00,67.5,59.6,29.81,NNW,338,5.8,5.8,76,0.00,BKN,,0.00,WeatherDisplay:10.37,2013-05-11 08:46:00,
2013-05-11 10:51:00,68.0,59.8,29.81,North,0,9.2,9.2,75,0.00,BKN,,0.00,WeatherDisplay:10.37,2013-05-11 08:51:00,
2013-05-11 10:56:00,67.6,59.1,29.81,NW,315,8.3,8.3,74,0.00,BKN,,0.00,WeatherDisplay:10.37,2013-05-11 08:56:00,
2013-05-11 11:01:00,67.3,59.1,29.81,NW,315,9.2,9.2,75,0.00,BKN,,0.00,WeatherDisplay:10.37,2013-05-11 09:01:00,
2013-05-11 11:06:00,66.6,58.4,29.81,NW,315,11.5,11.5,75,0.00,BKN,,0.00,WeatherDisplay:10.37,2013-05-11 09:06:00,
2013-05-11 11:11:00,66.4,58.6,29.81,North,0,10.4,10.4,76,0.00,BKN,,0.00,WeatherDisplay:10.37,2013-05-11 09:11:00,
2013-05-11 11:16:00,66.0,59.0,29.81,NW,315,12.7,12.7,78,0.00,SCT,BKN,0.00,WeatherDisplay:10.37,2013-05-11 09:16:00,
2013-05-11 11:21:00,65.8,58.8,29.81,North,0,10.4,10.4,78,0.00,SCT,BKN,0.00,WeatherDisplay:10.37,2013-05-11 09:21:00,
2013-05-11 11:26:00,65.8,59.1,29.81,NNW,338,8.1,8.1,79,0.00,SCT,BKN,0.00,WeatherDisplay:10.37,2013-05-11 09:26:00,
2013-05-11 11:31:00,66.0,59.3,29.81,North,0,10.4,10.4,79,0.00,SCT,BKN,0.00,WeatherDisplay:10.37,2013-05-11 09:31:00,
2013-05-11 11:36:00,66.4,58.9,29.81,North,0,9.2,9.2,77,0.00,SCT,BKN,0.00,WeatherDisplay:10.37,2013-05-11 09:36:00,
2013-05-11 11:41:00,66.7,58.9,29.81,NE,45,8.1,8.1,76,0.00,SCT,BKN,0.00,WeatherDisplay:10.37,2013-05-11 09:41:00,
2013-05-11 11:46:00,67.5,59.3,29.81,NW,315,8.1,8.1,75,0.00,SCT,BKN,0.00,WeatherDisplay:10.37,2013-05-11 09:46:00,
2013-05-11 11:51:00,67.8,59.6,29.81,NW,315,6.9,6.9,75,0.00,SCT,BKN,0.00,WeatherDisplay:10.37,2013-05-11 09:51:00,
2013-05-11 11:56:00,68.0,58.6,29.80,WNW,292,6.0,6.0,72,0.00,SCT,BKN,0.00,WeatherDisplay:10.37,2013-05-11 09:56:00,
2013-05-11 12:01:00,68.2,58.8,29.81,NNE,22,6.9,6.9,72,0.00,SCT,BKN,0.00,WeatherDisplay:10.37,2013-05-11 10:01:00,
2013-05-11 12:06:00,68.9,59.5,29.80,NNW,338,6.9,6.9,72,0.00,SCT,BKN,0.00,WeatherDisplay:10.37,2013-05-11 10:06:00,
2013-05-11 12:11:00,69.3,59.5,29.80,NW,315,9.2,9.2,71,0.00,SCT,BKN,0.00,WeatherDisplay:10.37,2013-05-11 10:11:00,
2013-05-11 12:16:00,69.8,59.2,29.80,North,0,5.8,5.8,69,0.00,SCT,BKN,0.00,WeatherDisplay:10.37,2013-05-11 10:16:00,
2013-05-11 12:21:00,70.0,58.9,29.80,North,0,8.1,8.1,68,0.00,SCT,BKN,0.00,WeatherDisplay:10.37,2013-05-11 10:21:00,
2013-05-11 12:26:00,70.0,58.9,29.81,North,0,8.1,8.1,68,0.00,SCT,BKN,0.00,WeatherDisplay:10.37,2013-05-11 10:26:00,
2013-05-11 12:31:00,70.0,58.9,29.80,North,0,8.1,8.1,68,0.00,SCT,BKN,0.00,WeatherDisplay:10.37,2013-05-11 10:31:00,
2013-05-11 12:36:00,69.8,58.3,29.80,NE,45,8.3,8.3,67,0.00,SCT,BKN,0.00,WeatherDisplay:10.37,2013-05-11 10:36:00,
2013-05-11 12:41:00,70.2,58.7,29.80,North,0,8.3,8.3,67,0.00,SCT,BKN,0.00,WeatherDisplay:10.37,2013-05-11 10:41:00,
2013-05-11 12:46:00,70.5,58.6,29.80,North,0,5.8,5.8,66,0.00,SCT,BKN,0.00,WeatherDisplay:10.37,2013-05-11 10:46:00,
2013-05-11 12:51:00,70.9,59.0,29.80,NNE,22,6.9,6.9,66,0.00,SCT,BKN,0.00,WeatherDisplay:10.37,2013-05-11 10:51:00,
2013-05-11 12:56:00,71.1,59.1,29.80,North,0,6.9,6.9,66,0.00,SCT,BKN,0.00,WeatherDisplay:10.37,2013-05-11 10:56:00,
2013-05-11 13:01:00,71.8,58.9,29.79,NE,45,4.5,4.5,64,0.00,SCT,BKN,0.00,WeatherDisplay:10.37,2013-05-11 11:01:00,
2013-05-11 13:06:00,72.1,57.9,29.79,North,0,6.9,6.9,61,0.00,SCT,BKN,0.00,WeatherDisplay:10.37,2013-05-11 11:06:00,
2013-05-11 13:11:00,72.0,57.3,29.79,NW,315,3.5,3.5,60,0.00,SCT,BKN,0.00,WeatherDisplay:10.37,2013-05-11 11:11:00,
2013-05-11 13:16:00,72.0,57.8,29.79,WNW,292,4.6,4.6,61,0.00,SCT,BKN,0.00,WeatherDisplay:10.37,2013-05-11 11:16:00,
2013-05-11 13:21:00,72.1,58.4,29.79,WSW,248,8.1,8.1,62,0.00,SCT,BKN,0.00,WeatherDisplay:10.37,2013-05-11 11:21:00,
2013-05-11 13:26:00,72.1,58.4,29.79,North,0,6.9,6.9,62,0.00,SCT,BKN,0.00,WeatherDisplay:10.37,2013-05-11 11:26:00,
2013-05-11 13:31:00,72.1,58.4,29.78,WNW,292,5.8,5.8,62,0.00,SCT,BKN,0.00,WeatherDisplay:10.37,2013-05-11 11:31:00,
2013-05-11 13:36:00,72.1,57.5,29.78,West,270,4.6,4.6,60,0.00,SCT,BKN,0.00,WeatherDisplay:10.37,2013-05-11 11:36:00,
2013-05-11 13:41:00,72.5,57.4,29.78,North,0,4.6,4.6,59,0.00,SCT,BKN,0.00,WeatherDisplay:10.37,2013-05-11 11:41:00,
2013-05-11 13:46:00,72.1,57.5,29.78,NW,315,6.9,6.9,60,0.00,SCT,BKN,0.00,WeatherDisplay:10.37,2013-05-11 11:46:00,
2013-05-11 13:51:00,72.5,57.8,29.78,SW,225,5.8,5.8,60,0.00,SCT,BKN,0.00,WeatherDisplay:10.37,2013-05-11 11:51:00,
2013-05-11 13:56:00,72.7,58.5,29.77,North,0,5.8,5.8,61,0.00,SCT,BKN,0.00,WeatherDisplay:10.37,2013-05-11 11:56:00,
2013-05-11 14:01:00,73.0,58.3,29.77,West,270,5.8,5.8,60,0.00,SCT,BKN,0.00,WeatherDisplay:10.37,2013-05-11 12:01:00,
2013-05-11 14:06:00,73.6,58.8,29.77,NW,315,7.6,7.6,60,0.00,SCT,BKN,0.00,WeatherDisplay:10.37,2013-05-11 12:06:00,
2013-05-11 14:11:00,73.8,59.0,29.77,NW,315,8.1,8.1,60,0.00,SCT,BKN,0.00,WeatherDisplay:10.37,2013-05-11 12:11:00,
2013-05-11 14:16:00,73.9,58.7,29.77,North,0,8.1,8.1,59,0.00,BKN,,0.00,WeatherDisplay:10.37,2013-05-11 12:16:00,
2013-05-11 14:21:00,73.9,58.7,29.77,North,0,8.1,8.1,59,0.00,BKN,,0.00,WeatherDisplay:10.37,2013-05-11 12:21:00,
2013-05-11 14:26:00,74.7,59.9,29.77,NE,45,7.6,7.6,60,0.00,BKN,,0.00,WeatherDisplay:10.37,2013-05-11 12:26:00,
2013-05-11 14:31:00,75.0,59.7,29.77,NW,315,9.2,9.2,59,0.00,BKN,,0.00,WeatherDisplay:10.37,2013-05-11 12:31:00,
2013-05-11 14:36:00,75.2,59.9,29.77,East,90,9.2,9.2,59,0.00,BKN,,0.00,WeatherDisplay:10.37,2013-05-11 12:36:00,
2013-05-11 14:41:00,75.2,59.4,29.76,North,0,10.4,10.4,58,0.00,BKN,,0.00,WeatherDisplay:10.37,2013-05-11 12:41:00,
2013-05-11 14:46:00,74.8,60.0,29.76,NW,315,10.4,10.4,60,0.00,BKN,,0.00,WeatherDisplay:10.37,2013-05-11 12:46:00,
2013-05-11 14:51:00,75.2,60.4,29.76,North,0,10.7,10.7,60,0.00,BKN,,0.00,WeatherDisplay:10.37,2013-05-11 12:51:00,
2013-05-11 14:56:00,75.2,60.4,29.76,North,0,8.1,8.1,60,0.00,BKN,,0.00,WeatherDisplay:10.37,2013-05-11 12:56:00,
2013-05-11 15:01:00,75.2,59.9,29.75,NW,315,10.4,10.4,59,0.00,BKN,,0.00,WeatherDisplay:10.37,2013-05-11 13:01:00,
2013-05-11 15:06:00,74.3,60.0,29.76,NW,315,11.5,11.5,61,0.00,BKN,,0.00,WeatherDisplay:10.37,2013-05-11 13:06:00,
2013-05-11 15:11:00,73.2,59.0,29.75,NNW,338,10.4,10.4,61,0.00,BKN,,0.00,WeatherDisplay:10.37,2013-05-11 13:11:00,
2013-05-11 15:16:00,73.2,59.4,29.75,NNE,22,13.0,13.0,62,0.00,BKN,,0.00,WeatherDisplay:10.37,2013-05-11 13:16:00,
2013-05-11 15:21:00,73.6,59.8,29.75,NNW,338,12.7,12.7,62,0.00,BKN,,0.00,WeatherDisplay:10.37,2013-05-11 13:21:00,
2013-05-11 15:26:00,73.9,60.1,29.75,NW,315,12.7,12.7,62,0.00,BKN,,0.00,WeatherDisplay:10.37,2013-05-11 13:26:00,
2013-05-11 15:31:00,73.2,59.0,29.75,North,0,11.4,11.4,61,0.00,BKN,,0.00,WeatherDisplay:10.37,2013-05-11 13:31:00,
2013-05-11 15:36:00,73.0,58.8,29.75,North,0,11.5,11.5,61,0.00,BKN,,0.00,WeatherDisplay:10.37,2013-05-11 13:36:00,
2013-05-11 15:41:00,73.8,59.9,29.74,West,270,8.1,8.1,62,0.00,BKN,,0.00,WeatherDisplay:10.37,2013-05-11 13:41:00,
2013-05-11 15:46:00,74.7,60.3,29.75,North,0,12.7,12.7,61,0.00,SCT,BKN,0.00,WeatherDisplay:10.37,2013-05-11 13:46:00,
2013-05-11 15:51:00,74.3,60.0,29.74,NW,315,10.4,10.4,61,0.00,SCT,BKN,0.00,WeatherDisplay:10.37,2013-05-11 13:51:00,
2013-05-11 15:56:00,73.9,60.1,29.75,North,0,10.4,10.4,62,0.00,SCT,BKN,0.00,WeatherDisplay:10.37,2013-05-11 13:56:00,
2013-05-11 16:01:00,73.4,60.0,29.75,NW,315,10.4,10.4,63,0.00,SCT,BKN,0.00,WeatherDisplay:10.37,2013-05-11 14:01:00,
2013-05-11 16:06:00,73.2,59.4,29.75,NE,45,10.4,10.4,62,0.00,SCT,BKN,0.00,WeatherDisplay:10.37,2013-05-11 14:06:00,
2013-05-11 16:11:00,72.1,59.7,29.75,NW,315,12.7,12.7,65,0.00,SCT,BKN,0.00,WeatherDisplay:10.37,2013-05-11 14:11:00,
2013-05-11 16:16:00,72.1,60.2,29.74,NE,45,9.2,9.2,66,0.00,SCT,BKN,0.00,WeatherDisplay:10.37,2013-05-11 14:16:00,
2013-05-11 16:21:00,72.5,60.9,29.75,North,0,10.7,10.7,67,0.00,SCT,BKN,0.00,WeatherDisplay:10.37,2013-05-11 14:21:00,
2013-05-11 16:26:00,72.9,60.8,29.74,NW,315,10.4,10.4,66,0.00,SCT,BKN,0.00,WeatherDisplay:10.37,2013-05-11 14:26:00,
2013-05-11 16:31:00,72.1,60.2,29.74,NW,315,10.7,10.7,66,0.00,SCT,BKN,0.00,WeatherDisplay:10.37,2013-05-11 14:31:00,
2013-05-11 16:36:00,72.0,60.4,29.74,North,0,10.4,10.4,67,0.00,SCT,BKN,0.00,WeatherDisplay:10.37,2013-05-11 14:36:00,
2013-05-11 16:41:00,72.0,60.8,29.74,North,0,10.7,10.7,68,0.00,SCT,BKN,0.00,WeatherDisplay:10.37,2013-05-11 14:41:00,
2013-05-11 16:46:00,71.8,60.2,29.74,NW,315,8.1,8.1,67,0.00,FEW,BKN,0.00,WeatherDisplay:10.37,2013-05-11 14:46:00,
2013-05-11 16:51:00,72.0,60.4,29.74,North,0,8.1,8.1,67,0.00,FEW,BKN,0.00,WeatherDisplay:10.37,2013-05-11 14:51:00,
2013-05-11 16:56:00,72.1,60.6,29.74,NW,315,9.2,9.2,67,0.00,FEW,BKN,0.00,WeatherDisplay:10.37,2013-05-11 14:56:00,
2013-05-11 17:01:00,72.0,60.4,29.74,SSW,202,8.3,8.3,67,0.00,FEW,BKN,0.00,WeatherDisplay:10.37,2013-05-11 15:01:00,
2013-05-11 17:06:00,72.1,60.6,29.74,NW,315,12.7,12.7,67,0.00,FEW,BKN,0.00,WeatherDisplay:10.37,2013-05-11 15:06:00,
2013-05-11 17:11:00,71.8,59.8,29.74,NNE,15,10.4,10.4,66,0.00,FEW,BKN,0.00,WeatherDisplay:10.37,2013-05-11 15:11:00,
2013-05-11 17:16:00,71.4,60.3,29.74,West,270,5.8,5.8,68,0.00,FEW,BKN,0.00,WeatherDisplay:10.37,2013-05-11 15:16:00,
2013-05-11 17:21:00,70.9,60.2,29.74,North,0,5.8,5.8,69,0.00,FEW,BKN,0.00,WeatherDisplay:10.37,2013-05-11 15:21:00,
2013-05-11 17:26:00,70.5,59.9,29.74,North,0,6.0,6.0,69,0.00,FEW,BKN,0.00,WeatherDisplay:10.37,2013-05-11 15:26:00,
2013-05-11 17:31:00,70.2,59.9,29.73,East,90,6.0,6.0,70,0.00,FEW,BKN,0.00,WeatherDisplay:10.37,2013-05-11 15:31:00,
2013-05-11 17:36:00,70.2,59.9,29.73,West,270,5.8,5.8,70,0.00,FEW,BKN,0.00,WeatherDisplay:10.37,2013-05-11 15:36:00,
2013-05-11 17:41:00,70.5,60.3,29.73,NNW,338,5.8,5.8,70,0.00,FEW,BKN,0.00,WeatherDisplay:10.37,2013-05-11 15:41:00,
2013-05-11 17:46:00,70.9,60.2,29.74,NW,315,5.8,5.8,69,0.00,FEW,BKN,0.00,WeatherDisplay:10.37,2013-05-11 15:46:00,
2013-05-11 17:51:00,71.1,60.4,29.73,NNE,22,5.8,5.8,69,0.00,FEW,BKN,0.00,WeatherDisplay:10.37,2013-05-11 15:51:00,
2013-05-11 17:56:00,70.3,59.7,29.73,NW,315,8.1,8.1,69,0.00,FEW,BKN,0.00,WeatherDisplay:10.37,2013-05-11 15:56:00,
2013-05-11 18:01:00,70.0,59.3,29.73,North,0,5.8,5.8,69,0.00,FEW,BKN,0.00,WeatherDisplay:10.37,2013-05-11 16:01:00,
2013-05-11 18:06:00,69.6,59.8,29.73,NW,315,5.8,5.8,71,0.00,FEW,BKN,0.00,WeatherDisplay:10.37,2013-05-11 16:06:00,
2013-05-11 18:11:00,69.8,59.6,29.73,North,0,5.8,5.8,70,0.00,FEW,BKN,0.00,WeatherDisplay:10.37,2013-05-11 16:11:00,
2013-05-11 18:16:00,69.6,59.8,29.73,North,0,6.9,6.9,71,0.00,FEW,BKN,0.00,WeatherDisplay:10.37,2013-05-11 16:16:00,
2013-05-11 18:21:00,69.8,59.6,29.73,WNW,292,5.8,5.8,70,0.00,FEW,BKN,0.00,WeatherDisplay:10.37,2013-05-11 16:21:00,
2013-05-11 18:26:00,69.6,59.8,29.73,NW,315,8.1,8.1,71,0.00,FEW,BKN,0.00,WeatherDisplay:10.37,2013-05-11 16:26:00,
2013-05-11 18:31:00,69.4,59.6,29.73,North,0,4.6,4.6,71,0.00,FEW,BKN,0.00,WeatherDisplay:10.37,2013-05-11 16:31:00,
2013-05-11 18:36:00,69.3,59.5,29.73,West,270,6.9,6.9,71,0.00,FEW,BKN,0.00,WeatherDisplay:10.37,2013-05-11 16:36:00,
2013-05-11 18:41:00,68.9,59.1,29.72,North,0,6.9,6.9,71,0.00,FEW,BKN,0.00,WeatherDisplay:10.37,2013-05-11 16:41:00,
2013-05-11 18:46:00,68.7,58.9,29.73,North,0,5.8,5.8,71,0.00,CLR,BKN,0.00,WeatherDisplay:10.37,2013-05-11 16:46:00,
2013-05-11 18:51:00,68.2,58.4,29.73,NW,315,5.8,5.8,71,0.00,CLR,BKN,0.00,WeatherDisplay:10.37,2013-05-11 16:51:00,
2013-05-11 18:56:00,68.0,58.2,29.74,North,0,5.8,5.8,71,0.00,CLR,BKN,0.00,WeatherDisplay:10.37,2013-05-11 16:56:00,
2013-05-11 19:01:00,67.5,58.5,29.74,North,0,6.9,6.9,73,0.00,CLR,BKN,0.00,WeatherDisplay:10.37,2013-05-11 17:01:00,
2013-05-11 19:06:00,67.1,58.5,29.74,NW,315,5.8,5.8,74,0.00,CLR,BKN,0.00,WeatherDisplay:10.37,2013-05-11 17:06:00,
2013-05-11 19:11:00,66.7,58.2,29.74,NW,315,6.9,6.9,74,0.00,CLR,BKN,0.00,WeatherDisplay:10.37,2013-05-11 17:11:00,
2013-05-11 19:16:00,66.4,58.2,29.74,North,0,5.8,5.8,75,0.00,FEW,BKN,0.00,WeatherDisplay:10.37,2013-05-11 17:16:00,
2013-05-11 19:21:00,65.8,58.1,29.75,NW,315,8.1,8.1,76,0.00,FEW,BKN,0.00,WeatherDisplay:10.37,2013-05-11 17:21:00,
2013-05-11 19:26:00,65.7,58.3,29.74,North,0,5.8,5.8,77,0.00,FEW,BKN,0.00,WeatherDisplay:10.37,2013-05-11 17:26:00,
2013-05-11 19:31:00,65.3,58.3,29.74,North,0,5.8,5.8,78,0.00,FEW,BKN,0.00,WeatherDisplay:10.37,2013-05-11 17:31:00,
2013-05-11 19:36:00,65.1,58.1,29.74,North,0,5.8,5.8,78,0.00,FEW,BKN,0.00,WeatherDisplay:10.37,2013-05-11 17:36:00,
2013-05-11 19:41:00,64.8,58.1,29.74,North,0,5.8,5.8,79,0.00,FEW,BKN,0.00,WeatherDisplay:10.37,2013-05-11 17:41:00,
2013-05-11 19:46:00,64.6,57.9,29.74,North,0,5.8,5.8,79,0.00,CLR,BKN,0.00,WeatherDisplay:10.37,2013-05-11 17:46:00,
2013-05-11 19:51:00,64.2,57.6,29.75,SSE,158,2.3,2.3,79,0.00,CLR,BKN,0.00,WeatherDisplay:10.37,2013-05-11 17:51:00,
2013-05-11 19:56:00,64.0,57.4,29.75,West,270,4.6,4.6,79,0.00,CLR,BKN,0.00,WeatherDisplay:10.37,2013-05-11 17:56:00,
2013-05-11 20:01:00,63.9,57.2,29.75,North,0,3.5,3.5,79,0.00,CLR,BKN,0.00,WeatherDisplay:10.37,2013-05-11 18:01:00,
2013-05-11 20:06:00,63.7,57.4,29.75,NW,315,4.6,4.6,80,0.00,CLR,BKN,0.00,WeatherDisplay:10.37,2013-05-11 18:06:00,
2013-05-11 20:11:00,63.5,57.2,29.75,NE,45,5.8,5.8,80,0.00,CLR,BKN,0.00,WeatherDisplay:10.37,2013-05-11 18:11:00,
2013-05-11 20:16:00,63.3,57.0,29.75,North,0,8.1,8.1,80,0.00,CLR,BKN,0.00,WeatherDisplay:10.37,2013-05-11 18:16:00,
2013-05-11 20:21:00,63.3,57.0,29.75,NE,45,10.4,10.4,80,0.00,CLR,BKN,0.00,WeatherDisplay:10.37,2013-05-11 18:21:00,
2013-05-11 20:26:00,63.1,56.9,29.75,West,270,3.5,3.5,80,0.00,CLR,BKN,0.00,WeatherDisplay:10.37,2013-05-11 18:26:00,
2013-05-11 20:31:00,63.0,57.0,29.75,North,0,5.8,5.8,81,0.00,CLR,BKN,0.00,WeatherDisplay:10.37,2013-05-11 18:31:00,
2013-05-11 20:36:00,63.0,57.0,29.75,North,0,5.8,5.8,81,0.00,CLR,BKN,0.00,WeatherDisplay:10.37,2013-05-11 18:36:00,
2013-05-11 20:41:00,62.8,56.9,29.75,North,0,4.6,4.6,81,0.00,CLR,BKN,0.00,WeatherDisplay:10.37,2013-05-11 18:41:00,
2013-05-11 20:46:00,62.6,56.7,29.75,North,0,3.8,3.8,81,0.00,CLR,BKN,0.00,WeatherDisplay:10.37,2013-05-11 18:46:00,
2013-05-11 20:51:00,62.6,56.7,29.76,North,0,3.5,3.5,81,0.00,CLR,BKN,0.00,WeatherDisplay:10.37,2013-05-11 18:51:00,
2013-05-11 20:56:00,62.4,56.9,29.75,NNE,22,6.0,6.0,82,0.00,CLR,BKN,0.00,WeatherDisplay:10.37,2013-05-11 18:56:00,
2013-05-11 21:01:00,62.2,56.7,29.75,North,0,4.5,4.5,82,0.00,CLR,BKN,0.00,WeatherDisplay:10.37,2013-05-11 19:01:00,
2013-05-11 21:06:00,62.2,56.7,29.76,NW,315,4.6,4.6,82,0.00,CLR,BKN,0.00,WeatherDisplay:10.37,2013-05-11 19:06:00,
2013-05-11 21:11:00,62.2,57.0,29.76,North,0,5.8,5.8,83,0.00,CLR,BKN,0.00,WeatherDisplay:10.37,2013-05-11 19:11:00,
2013-05-11 21:16:00,62.2,57.0,29.76,NE,45,5.8,5.8,83,0.00,BKN,,0.00,WeatherDisplay:10.37,2013-05-11 19:16:00,
2013-05-11 21:21:00,62.1,56.8,29.76,North,0,4.6,4.6,83,0.00,BKN,,0.00,WeatherDisplay:10.37,2013-05-11 19:21:00,
2013-05-11 21:26:00,61.9,56.7,29.76,NW,315,2.3,2.3,83,0.00,BKN,,0.00,WeatherDisplay:10.37,2013-05-11 19:26:00,
2013-05-11 21:31:00,61.9,56.7,29.76,NW,315,3.5,3.5,83,0.00,BKN,,0.00,WeatherDisplay:10.37,2013-05-11 19:31:00,
2013-05-11 21:36:00,61.9,56.7,29.76,NE,45,3.5,3.5,83,0.00,BKN,,0.00,WeatherDisplay:10.37,2013-05-11 19:36:00,
2013-05-11 21:41:00,61.7,56.5,29.76,NE,45,3.5,3.5,83,0.00,BKN,,0.00,WeatherDisplay:10.37,2013-05-11 19:41:00,
2013-05-11 21:46:00,61.7,56.5,29.76,North,0,5.8,5.8,83,0.00,BKN,,0.00,WeatherDisplay:10.37,2013-05-11 19:46:00,
2013-05-11 21:51:00,61.7,56.5,29.76,North,0,6.0,6.0,83,0.00,BKN,,0.00,WeatherDisplay:10.37,2013-05-11 19:51:00,
2013-05-11 21:56:00,61.5,56.3,29.75,North,0,4.6,4.6,83,0.00,BKN,,0.00,WeatherDisplay:10.37,2013-05-11 19:56:00,
2013-05-11 22:01:00,61.5,56.3,29.76,NE,45,5.8,5.8,83,0.00,BKN,,0.00,WeatherDisplay:10.37,2013-05-11 20:01:00,
2013-05-11 22:06:00,61.5,56.3,29.76,NE,45,5.8,5.8,83,0.00,BKN,,0.00,WeatherDisplay:10.37,2013-05-11 20:06:00,
2013-05-11 22:11:00,61.3,56.1,29.75,North,0,4.6,4.6,83,0.00,BKN,,0.00,WeatherDisplay:10.37,2013-05-11 20:11:00,
2013-05-11 22:16:00,61.3,56.1,29.76,North,0,5.8,5.8,83,0.00,BKN,,0.00,WeatherDisplay:10.37,2013-05-11 20:16:00,
2013-05-11 22:21:00,61.3,56.1,29.76,NW,315,4.6,4.6,83,0.00,BKN,,0.00,WeatherDisplay:10.37,2013-05-11 20:21:00,
2013-05-11 22:26:00,61.2,56.0,29.76,NW,315,4.6,4.6,83,0.00,BKN,,0.00,WeatherDisplay:10.37,2013-05-11 20:26:00,
2013-05-11 22:31:00,61.0,55.8,29.77,North,0,3.5,3.5,83,0.00,BKN,,0.00,WeatherDisplay:10.37,2013-05-11 20:31:00,
2013-05-11 22:36:00,61.0,55.8,29.76,East,90,3.5,3.5,83,0.00,BKN,,0.00,WeatherDisplay:10.37,2013-05-11 20:36:00,
2013-05-11 22:41:00,61.0,55.8,29.76,NE,45,2.3,2.3,83,0.00,BKN,,0.00,WeatherDisplay:10.37,2013-05-11 20:41:00,
2013-05-11 22:46:00,60.8,55.6,29.76,NE,45,1.6,1.6,83,0.00,CLR,BKN,0.00,WeatherDisplay:10.37,2013-05-11 20:46:00,
2013-05-11 22:51:00,60.8,55.9,29.77,NE,45,3.5,3.5,84,0.00,CLR,BKN,0.00,WeatherDisplay:10.37,2013-05-11 20:51:00,
2013-05-11 22:56:00,60.8,55.9,29.77,NE,45,2.3,2.3,84,0.00,CLR,BKN,0.00,WeatherDisplay:10.37,2013-05-11 20:56:00,
2013-05-11 23:01:00,60.8,55.9,29.77,East,90,3.5,3.5,84,0.00,CLR,BKN,0.00,WeatherDisplay:10.37,2013-05-11 21:01:00,
2013-05-11 23:06:00,60.8,55.9,29.77,North,0,1.6,1.6,84,0.01,RA,BKN,0.01,WeatherDisplay:10.37,2013-05-11 21:06:00,
2013-05-11 23:11:00,60.8,56.3,29.77,North,0,6.9,6.9,85,0.01,RA,BKN,0.01,WeatherDisplay:10.37,2013-05-11 21:11:00,
2013-05-11 23:16:00,60.4,56.2,29.77,WNW,292,3.5,3.5,86,0.02,RA,BKN,0.02,WeatherDisplay:10.37,2013-05-11 21:16:00,
2013-05-11 23:21:00,60.1,56.2,29.77,North,0,6.0,6.0,87,0.02,RA,BKN,0.02,WeatherDisplay:10.37,2013-05-11 21:21:00,
2013-05-11 23:26:00,59.7,56.2,29.77,NW,315,5.8,5.8,88,0.02,CLR,BKN,0.02,WeatherDisplay:10.37,2013-05-11 21:26:00,
2013-05-11 23:31:00,59.5,56.3,29.77,North,0,4.6,4.6,89,0.02,CLR,BKN,0.02,WeatherDisplay:10.37,2013-05-11 21:31:00,
2013-05-11 23:36:00,59.4,56.4,29.77,North,0,2.3,2.3,90,0.02,CLR,BKN,0.02,WeatherDisplay:10.37,2013-05-11 21:36:00,
2013-05-11 23:41:00,59.4,56.4,29.78,South,180,2.3,2.3,90,0.02,CLR,BKN,0.02,WeatherDisplay:10.37,2013-05-11 21:41:00,
2013-05-11 23:46:00,59.2,56.2,29.78,East,90,3.8,3.8,90,0.02,BKN,,0.02,WeatherDisplay:10.37,2013-05-11 21:46:00,
2013-05-11 23:51:00,59.2,56.2,29.78,East,90,3.5,3.5,90,0.02,BKN,,0.02,WeatherDisplay:10.37,2013-05-11 21:51:00,
2013-05-11 23:56:00,59.0,56.4,29.78,West,270,2.2,2.2,91,0.02,BKN,,0.02,WeatherDisplay:10.37,2013-05-11 21:56:00,